STRAND-1

Last updated on Fri Sep 11 2026 00:03:12 GMT+0000 (Coordinated Universal Time)

1 39090U 13009E 26253.48058274 .00000164 00000+0 69395-4 0 9996 2 39090 98.3968 71.6448 0008247 343.9864 16.1061 14.37204672709315
UTC large
Height (km)
Speed (km/s)
/
Latitude / Longitude
Inclination (degrees)
Orbital Period (minutes)
Azimuth
Elevation
Range (km)
Doppler Factor

Next 0 passes for location: London (51.5072 / 0.1276)

No passes found over London.
STRAND-1